TimePST,TemperatureF,Dew PointF,Humidity,Sea Level PressureIn,VisibilityMPH,Wind Direction,Wind SpeedMPH,Gust SpeedMPH,PrecipitationIn,Events,Conditions,WindDirDegrees,DateUTC
12:24 AM,23.0,19.4,86,29.96,0.8,NW,8.1,-,0.00,,Mist,310,2012-12-10 08:24:00
12:40 AM,23.0,19.4,86,29.96,1.0,NW,6.9,-,0.00,,Mist,320,2012-12-10 08:40:00
12:46 AM,21.2,19.4,93,29.96,0.8,Variable,6.9,-,0.00,,Mist,0,2012-12-10 08:46:00
12:53 AM,23.0,19.0,85,30.14,0.8,Variable,6.9,-,0.00,,Mist,0,2012-12-10 08:53:00
1:53 AM,21.9,18.0,85,30.15,0.5,NW,9.2,-,N/A,Fog,Light Freezing Fog,320,2012-12-10 09:53:00
2:53 AM,21.9,18.0,85,30.15,0.8,NNW,6.9,-,N/A,,Mist,330,2012-12-10 10:53:00
3:53 AM,21.9,18.0,85,30.17,0.8,NNW,6.9,-,N/A,,Mist,330,2012-12-10 11:53:00
4:53 AM,21.9,18.0,85,30.17,0.8,NNW,8.1,23.0,N/A,,Mist,330,2012-12-10 12:53:00
5:51 AM,21.2,17.6,86,30.00,1.2,NW,6.9,-,N/A,,Overcast,320,2012-12-10 13:51:00
5:53 AM,21.9,18.0,85,30.19,1.0,NW,6.9,-,N/A,,Mist,320,2012-12-10 13:53:00
6:28 AM,21.2,17.6,86,30.00,1.5,Variable,5.8,-,N/A,,Overcast,0,2012-12-10 14:28:00
6:37 AM,21.2,17.6,86,30.00,1.0,Variable,5.8,20.7,N/A,,Mist,0,2012-12-10 14:37:00
6:53 AM,21.9,18.0,85,30.18,1.5,NNW,8.1,20.7,N/A,,Overcast,330,2012-12-10 14:53:00
7:01 AM,21.2,17.6,86,30.00,1.0,NNW,6.9,-,N/A,,Mist,330,2012-12-10 15:01:00
7:13 AM,21.2,17.6,86,30.00,1.5,NW,10.4,19.6,N/A,,Overcast,320,2012-12-10 15:13:00
7:28 AM,21.2,17.6,86,30.00,1.0,NNW,8.1,-,N/A,,Mist,330,2012-12-10 15:28:00
7:37 AM,21.2,17.6,86,30.00,0.5,NNW,6.9,16.1,N/A,Fog,Light Freezing Fog,330,2012-12-10 15:37:00
7:53 AM,21.9,18.0,85,30.17,0.5,NW,9.2,19.6,N/A,Fog,Light Freezing Fog,320,2012-12-10 15:53:00
8:03 AM,21.2,17.6,86,30.01,0.8,NW,9.2,17.3,N/A,,Mist,320,2012-12-10 16:03:00
8:16 AM,21.2,17.6,86,30.02,1.5,NNW,9.2,-,N/A,,Overcast,330,2012-12-10 16:16:00
8:23 AM,21.2,17.6,86,30.02,3.0,NW,9.2,17.3,N/A,,Overcast,320,2012-12-10 16:23:00
8:40 AM,21.2,17.6,86,30.02,1.8,NNW,9.2,17.3,N/A,,Overcast,330,2012-12-10 16:40:00
8:53 AM,21.9,18.0,85,30.19,1.0,NNW,8.1,18.4,N/A,,Mist,330,2012-12-10 16:53:00
9:06 AM,21.2,17.6,86,30.02,2.0,NNW,8.1,-,N/A,,Overcast,330,2012-12-10 17:06:00
9:34 AM,23.0,19.4,86,30.03,8.0,NW,10.4,19.6,N/A,,Overcast,320,2012-12-10 17:34:00
9:53 AM,25.0,19.0,78,30.17,10.0,NW,8.1,-,N/A,,Mostly Cloudy,320,2012-12-10 17:53:00
10:15 AM,24.8,19.4,80,30.02,1.8,Variable,4.6,-,N/A,,Haze,0,2012-12-10 18:15:00
10:22 AM,24.8,19.4,80,30.03,0.8,Variable,6.9,-,N/A,,Haze,0,2012-12-10 18:22:00
10:25 AM,24.8,17.6,74,30.03,0.2,Variable,5.8,-,N/A,,Haze,0,2012-12-10 18:25:00
10:53 AM,24.1,19.0,81,30.17,0.2,Calm,Calm,-,N/A,,Haze,0,2012-12-10 18:53:00
11:37 AM,24.8,19.4,80,30.01,0.5,Variable,3.5,-,N/A,,Haze,0,2012-12-10 19:37:00
11:47 AM,24.8,19.4,80,30.00,1.5,Variable,3.5,-,N/A,,Haze,0,2012-12-10 19:47:00
11:49 AM,24.8,21.2,86,30.01,3.0,Variable,3.5,-,N/A,,Overcast,0,2012-12-10 19:49:00
11:53 AM,25.0,21.0,85,30.14,2.5,Calm,Calm,-,N/A,,Overcast,0,2012-12-10 19:53:00
11:56 AM,24.8,21.2,86,30.01,1.2,Calm,Calm,-,N/A,,Overcast,0,2012-12-10 19:56:00
12:04 PM,24.8,21.2,86,30.00,0.5,Variable,3.5,-,N/A,Fog,Light Freezing Fog,0,2012-12-10 20:04:00
12:30 PM,24.8,19.4,80,30.00,0.2,Variable,4.6,-,N/A,,Haze,0,2012-12-10 20:30:00
12:53 PM,24.1,19.9,84,30.14,0.2,Variable,3.5,-,N/A,Fog,Light Freezing Fog,0,2012-12-10 20:53:00
12:57 PM,24.8,19.4,80,30.00,0.5,Variable,3.5,-,N/A,Fog,Light Freezing Fog,0,2012-12-10 20:57:00
1:26 PM,24.8,19.4,80,30.00,0.2,Variable,5.8,-,N/A,Fog,Light Freezing Fog,0,2012-12-10 21:26:00
1:33 PM,24.8,19.4,80,30.00,0.2,Variable,5.8,-,N/A,Fog,Light Freezing Fog,0,2012-12-10 21:33:00
1:42 PM,24.8,19.4,80,30.01,1.2,Calm,Calm,-,N/A,,Overcast,0,2012-12-10 21:42:00
1:51 PM,24.8,19.4,80,30.01,0.5,Calm,Calm,-,N/A,Fog,Light Freezing Fog,0,2012-12-10 21:51:00
1:53 PM,24.1,19.9,84,30.15,0.2,Variable,3.5,-,N/A,Fog,Light Freezing Fog,0,2012-12-10 21:53:00
2:10 PM,24.8,19.4,80,30.01,0.5,Variable,3.5,-,N/A,,Haze,0,2012-12-10 22:10:00
2:20 PM,24.8,19.4,80,30.00,0.2,Variable,3.5,-,N/A,,Haze,0,2012-12-10 22:20:00
2:53 PM,25.0,19.9,81,30.14,0.2,Calm,Calm,-,N/A,,Haze,0,2012-12-10 22:53:00
3:53 PM,24.1,19.9,84,30.14,0.2,Calm,Calm,-,N/A,Fog,Light Freezing Fog,0,2012-12-10 23:53:00
4:04 PM,24.8,19.4,80,30.00,0.5,Variable,4.6,-,N/A,Fog,Light Freezing Fog,0,2012-12-11 00:04:00
4:18 PM,24.8,19.4,80,29.99,0.8,Variable,4.6,-,N/A,,Mist,0,2012-12-11 00:18:00
4:28 PM,24.8,19.4,80,29.99,1.5,Variable,5.8,-,N/A,,Overcast,0,2012-12-11 00:28:00
4:43 PM,24.8,19.4,80,29.98,1.0,Variable,4.6,-,N/A,,Mist,0,2012-12-11 00:43:00
4:53 PM,24.1,19.9,84,30.12,1.0,Variable,5.8,-,N/A,,Mist,0,2012-12-11 00:53:00
5:15 PM,24.8,19.4,80,29.98,0.8,Variable,5.8,-,N/A,,Mist,0,2012-12-11 01:15:00
5:29 PM,24.8,19.4,80,29.98,0.5,WNW,5.8,-,N/A,Fog,Light Freezing Fog,300,2012-12-11 01:29:00
5:53 PM,24.1,19.9,84,30.12,0.8,Variable,4.6,-,N/A,,Mist,0,2012-12-11 01:53:00
6:04 PM,24.8,19.4,80,29.97,0.8,Variable,3.5,-,N/A,,Mist,0,2012-12-11 02:04:00
6:13 PM,24.8,19.4,80,29.98,0.5,NW,3.5,-,N/A,Fog,Light Freezing Fog,320,2012-12-11 02:13:00
6:53 PM,25.0,21.0,85,30.11,0.5,Variable,4.6,-,N/A,Fog,Light Freezing Fog,0,2012-12-11 02:53:00
7:11 PM,24.8,21.2,86,29.97,0.2,Variable,3.5,-,N/A,Fog,Light Freezing Fog,0,2012-12-11 03:11:00
7:24 PM,24.8,21.2,86,29.96,1.0,Calm,Calm,-,N/A,,Mist,0,2012-12-11 03:24:00
7:31 PM,24.8,21.2,86,29.97,1.8,Calm,Calm,-,N/A,,Overcast,0,2012-12-11 03:31:00
7:36 PM,24.8,21.2,86,29.97,0.8,Calm,Calm,-,N/A,,Mist,0,2012-12-11 03:36:00
7:51 PM,26.6,21.2,80,29.96,1.5,SW,5.8,-,N/A,,Overcast,230,2012-12-11 03:51:00
7:53 PM,26.1,21.0,81,30.09,1.8,Variable,5.8,-,N/A,,Haze,0,2012-12-11 03:53:00
8:04 PM,26.6,21.2,80,29.96,2.5,Variable,3.5,-,N/A,,Overcast,0,2012-12-11 04:04:00
8:14 PM,26.6,21.2,80,29.96,1.2,Variable,3.5,-,N/A,,Overcast,0,2012-12-11 04:14:00
8:24 PM,26.6,21.2,80,29.95,2.0,Variable,4.6,-,N/A,,Overcast,0,2012-12-11 04:24:00
8:36 PM,26.6,21.2,80,29.95,1.2,Variable,5.8,-,N/A,,Overcast,0,2012-12-11 04:36:00
8:40 PM,26.6,21.2,80,29.96,2.0,Variable,6.9,-,N/A,,Overcast,0,2012-12-11 04:40:00
8:53 PM,26.1,21.9,84,30.08,1.2,Variable,5.8,-,N/A,,Overcast,0,2012-12-11 04:53:00
9:53 PM,26.1,23.0,88,30.04,0.2,WSW,8.1,-,0.00,Fog-Snow,Light Snow,240,2012-12-11 05:53:00
10:53 PM,27.0,24.1,89,30.02,0.2,Variable,3.5,-,0.00,Fog-Snow,Light Snow,0,2012-12-11 06:53:00
11:37 PM,28.4,24.8,86,29.90,0.2,WSW,11.5,27.6,0.00,Fog-Rain,Light Freezing Rain,240,2012-12-11 07:37:00
11:53 PM,28.0,25.0,88,29.99,0.2,Variable,3.5,-,0.00,Fog-Rain,Light Freezing Rain,0,2012-12-11 07:53:00